Location: Newark
(47.3150°N, 5.1150°E)
Time: 02:00:37
(UTC+00:00)

O/OREOS (USA 219) - Pass Details

Date: 23 December 2019
Orbit: 621 x 646 km, 72.0° (Epoch: 22 May)

Event Time Altitude Azimuth Distance (km) Brightness Sun altitude
Exits shadow 03:56:33 18° 130° (SE) 1,559 ? -34.0°
Drops below altitude 10° 03:57:47 10° 136° (SE) 2,017 ? -33.8°
Sets 04:00:06 0° 141° (SE) 2,917 ? -33.4°
